Flag for Canada Weather past 2 weeks in Cornwall, Ontario, Canada

Now
70 °F

Mild.


Feels Like: 71 °F
Forecast: 63 / 71 °F
Wind: 2 mph from Southwest

Location: St Anicet

Current Time: Aug 20, 2014 at 10:39:02 PM

Latest Report: Aug 20, 2014 at 10:00 PM


Visibility: N/A

Pressure: 29.98 "Hg

Humidity: 80%

Dew point: 64 °F

Location of CornwallLocation

Historic Weather in Cornwall — Graph

°F

Cornwall temperature yesterday

Maximum temperature yesterday: 75 °F (at 5:00 PM)
Minimum temperature yesterday: 45 °F (at 6:00 AM)
Average temperature yesterday: 60 °F

Past Weeks' High & Low Weather Summary

 TemperatureHumidityPressure
High85 °F (Aug 11, 2:00 PM)100% (Aug 8, 4:00 AM)30.15 "Hg (Aug 8, 4:00 AM)
Low45 °F (Aug 19, 6:00 AM)43% (Aug 6, 4:00 PM)29.65 "Hg (Aug 13, 3:00 PM)
Average65 °F80%29.92 "Hg
* Reported Aug 5 9:00 PM — Aug 20 9:00 PM, Cornwall, Weather by CustomWeather, © 2014

Note: Actual official high and low records may vary slightly from our data, if they occured in-between our weather recording intervals... More about our weather records

Advertising

Cornwall weather history for previous 24 hours

 ConditionsComfort  
Time TempWeatherWind HumidityBarometerVisibility
9:00 PM
Aug 20
71 °FMild.5 mph77%29.96 "HgN/A
8:00 PM73 °FMild.6 mph75%29.95 "HgN/A
7:00 PM76 °FMild.7 mph68%29.94 "HgN/A
6:00 PM78 °FWarm.7 mph64%29.93 "HgN/A
5:00 PM80 °FWarm.9 mph63%29.93 "HgN/A
4:00 PM80 °FWarm.8 mph57%29.93 "HgN/A
3:00 PM78 °FWarm.9 mph68%29.93 "HgN/A
2:00 PM78 °FWarm.10 mph67%29.94 "HgN/A
1:00 PM76 °FMild.10 mph68%29.96 "HgN/A
12:00 PM74 °FMild.9 mph71%29.96 "HgN/A
11:00 AM71 °FMild.8 mph75%29.96 "HgN/A
10:00 AM67 °FMild.5 mph79%29.96 "HgN/A
9:00 AM63 °FMild.3 mph85%29.95 "HgN/A
8:00 AM58 °FCool.6 mph94%29.94 "HgN/A
7:00 AM52 °FCool.3 mph99%29.94 "HgN/A
6:00 AM50 °FCool.2 mph99%29.93 "HgN/A
5:00 AM50 °FCool.No wind98%29.93 "HgN/A
4:00 AM50 °FCool.2 mph98%29.92 "HgN/A
3:00 AM51 °FCool.1 mph98%29.91 "HgN/A
2:00 AM51 °FCool.1 mph98%29.92 "HgN/A
1:00 AM52 °FCool.1 mph97%29.93 "HgN/A
12:00 AM54 °FCool.2 mph97%29.92 "HgN/A
11:00 PM
Aug 19
55 °FCool.2 mph98%29.91 "HgN/A
10:00 PM56 °FCool.3 mph94%29.91 "HgN/A
Weather by CustomWeather, © 2014

See weather overviewHow to use our weather pages